Location: Songkhla
(7.2000°N, 100.6000°E)
Time: 02:43:40
(UTC+07:00)

BRICSAT 2 - Pass Details

Date: 24 June 2021
Orbit: 295 x 638 km, 28.5° (Epoch: 28 July)

Event Time Altitude Azimuth Distance (km) Brightness Sun altitude
Rises 18:19:04 0° 317° (NW) 2,261 ? 3.1°
Reaches altitude 10° 18:21:17 10° 331° (NNW) 1,473 ? 2.6°
Maximum altitude 18:24:08 25° 29° (NNE) 932 ? 1.9°
Drops below altitude 10° 18:27:19 10° 86° (E) 1,659 ? 1.2°
Sets 18:29:58 0° 99° (E) 2,623 ? 0.6°
